Terug naar catalogus

FREGAT DEB

LostUNKNOWN
NORAD 45991·DEBRIS·🇷🇺 Russia

Gelanceerd Jul 18, 2011 vanaf Baikonur Cosmodrome

Loading…

Volgende Passages (komende 24 uur)

TLE

VerouderdSource: Space-Track

Epoch: Jan 25, 2021, 16:07 UTC

1 45991U 11037GS  21025.67213765  .00193790  00000-0  25446+0 0  9996
2 45991  51.6636 271.2007 2076357  12.7907 351.8205 10.40909919 19143

Volg FREGAT DEB in realtime met AllMySat

Download on the App Store